Simultaneous Nadir Overpasses (SNOs) Predictions

Prediction of SNOs between NOAA-20 and LANDSAT-8 Satellite Orbit:

Table of predicted SNOs for the next 14.0 days since TLE Epoch: 7/26/2019
Index Date (NOAA-20) Time (NOAA-20) Lat,Lon (NOAA-20) SZA (NOAA-20 ) Date (LANDSAT-8) Time (LANDSAT-8) Lat,Lon (LANDSAT-8) SZA (LANDSAT-8 ) Distance(km) Time Diff (sec)
1 07/27/2019 07:22:46 70.04, 65.65 50.79 07/27/2019 07:23:09 70.04, 65.61 50.78 1.43 23
2 07/27/2019 08:13:27 -69.91,-126.84 129.35 07/27/2019 08:12:39 -69.92,-126.91 129.33 3.24 48
3 07/29/2019 22:48:59 -70.35, 13.65 128.28 07/29/2019 22:50:11 -70.24, 14.14 128.42 21.69 72
4 07/29/2019 23:39:39 70.01,-178.53 51.38 07/29/2019 23:39:40 70.03,-178.52 51.39 2.38 1
5 07/30/2019 00:30:21 -69.93, -11.09 128.70 07/30/2019 00:29:10 -69.92, -11.04 128.71 2.30 71
6 08/01/2019 15:05:48 -70.10, 129.79 127.88 08/01/2019 15:06:45 -70.09, 129.80 127.90 1.31 57
7 08/01/2019 15:56:32 69.98, -62.71 52.00 08/01/2019 15:56:12 69.99, -62.71 52.01 0.45 20
8 08/01/2019 16:47:02 -69.27, 105.65 128.74 08/01/2019 16:45:53 -69.28, 103.96 128.66 66.74 69
9 08/04/2019 07:22:40 -70.08,-114.39 127.22 08/04/2019 07:23:16 -70.07,-114.37 127.24 1.28 36
10 08/04/2019 08:13:24 69.96, 53.10 52.67 08/04/2019 08:12:43 69.96, 53.12 52.67 0.87 41
11 08/06/2019 22:49:01 70.66,-166.85 54.12 08/06/2019 22:50:10 70.59,-165.36 53.98 55.69 69
12 08/06/2019 23:39:33 -70.05, 1.43 126.53 08/06/2019 23:39:48 -70.05, 1.49 126.53 2.10 15
13 08/07/2019 00:30:17 69.93, 168.91 53.37 08/07/2019 00:29:15 69.94, 168.97 53.38 2.44 62
14 08/09/2019 15:05:44 70.11, -50.21 54.29 08/09/2019 15:06:51 70.10, -50.21 54.26 2.00 67
15 08/09/2019 15:56:26 -70.02, 117.25 125.80 08/09/2019 15:56:21 -70.00, 117.28 125.83 2.81 5
16 08/09/2019 16:47:04 69.59, -74.81 53.76 08/09/2019 16:45:52 69.66, -75.54 53.87 29.49 72




NCC Satellite Simultaneous Nadir Overpasses (SNOs) Prediction Service
